Location: *
(35.8942°N, 23.3025°E)
Time: 00:08:28
(UTC+00:00)

N. Korean satellite - Pass Details

Date: 05 December 2022
Orbit: 407 x 442 km, 97.3° (Epoch: 05 February)

Event Time Altitude Azimuth Distance (km) Brightness Sun altitude
Rises 04:23:27 0° 356° (N) 2,505 9.9 -11.7°
Reaches altitude 10° 04:25:49 10° 340° (NNW) 1,617 8.8 -11.3°
Maximum altitude 04:28:32 22° 289° (WNW) 1,059 7.6 -10.7°
Drops below altitude 10° 04:31:13 10° 237° (WSW) 1,585 8.8 -10.2°
Sets 04:33:31 0° 221° (SW) 2,441 9.9 -9.8°
